Regional Weather Roundup
Issued by NWS

Home | Current Version | Previous Version | Graphics & Text | Print | Product List | Glossary On
Versions: 1 2 3 4 5 6 7 8 9 10 11 12 13 14 15 16 17 18 19 20 21 22 23 24 25 26 27 28 29 30 31 32 33 34 35 36 37 38 39 40 41 42 43 44 45 46 47 48 49 50
000
ASUS45 KSLC 092210
RWRUT

UTAH REGIONAL WEATHER ROUNDUP
NATIONAL WEATHER SERVICE SALT LAKE CITY UT
300 PM MST FRI DEC 09 2016

UTZ001>011-023>025-092300-

NORTHERN UTAH

CITY           SKY/WX    TMP DP  RH WIND       PRES   REMARKS
BRIGHAM CITY     N/A     37  32  83 S3        30.18F
HILL AFB       PTSUNNY   35  32  87 N8        30.16R WCI  29
LOGAN          MIX PCPN  35  34  96 N6        30.16F FOG     WCI  30
OGDEN          CLOUDY    35  30  82 N7        30.17R WCI  29
SALT LAKE CITY PTSUNNY   43  33  68 NW3       30.15F
WENDOVER       CLOUDY    32  21  64 CALM      30.16F
HEBER CITY     CLOUDY    37  32  81 CALM      30.15S

$$

UTZ011>015-024>027-092300-

CENTRAL/NORTHEAST UTAH

CITY           SKY/WX    TMP DP  RH WIND       PRES   REMARKS
PROVO AIRPORT  PTSUNNY   42  32  67 CALM      30.19S
MOAB/CANYONLAN CLOUDY    38  11  32 NW5       30.26F WCI  34
DELTA          PTSUNNY   48  27  43 S7        30.18S
PRICE          PTSUNNY   36  10  34 SE6       30.24S WCI  31
ROOSEVELT      CLOUDY    32  18  55 CALM      30.26S
VERNAL         CLOUDY    31  14  49 E3        30.23F

$$

UTZ013>016-019>022-027-092300-

SOUTHERN UTAH

CITY           SKY/WX    TMP DP  RH WIND       PRES   REMARKS
BRYCE CANYON   MOSUNNY   40  22  48 SE10      30.25  WCI  33
CEDAR CITY     MOSUNNY   48  30  49 SW14      30.20S
MILFORD        MOSUNNY   50  26  39 SW17      30.18F
ST GEORGE      PTCLDY    48  23  37 CALM      30.26F
HANKSVILLE     MOSUNNY   37   9  30 CALM      30.31S
BLANDING       SUNNY     44  22  41 S3        30.34S

$$

REGIONAL REPORTS     COLORADO/ARIZONA

CITY           SKY/WX    TMP DP  RH WIND       PRES   REMARKS
CRAIG, CO      CLOUDY    36  27  69 E6        30.20F WCI  31
GRAND JUNCTION CLOUDY    37  16  42 CALM      30.27S
RIFLE, CO      CLOUDY    33  19  56 CALM      30.28F
MONTROSE, CO   CLOUDY    39  19  44 NE5       30.27F
CORTEZ, CO     CLOUDY    47  25  42 CALM      30.27F
COLORADO CITY    N/A     52  34  50 CALM      30.27F
PAGE, AZ       SUNNY     47  10  22 N5        30.25F
GRAND CANYON   MOSUNNY   47  36  65 SW7       30.27F
KINGMAN, AZ    CLOUDY    59  36  42 SW9       30.22F
FLAGSTAFF, AZ  SUNNY     49  34  56 S9        30.27S

$$

REGIONAL REPORTS    NEVADA/IDAHO/WYOMING

CITY           SKY/WX    TMP DP  RH WIND       PRES   REMARKS
LAS VEGAS, NV  PTSUNNY   56  10  16 VRB6      30.23F
ELY, NY        MOSUNNY   43  19  38 E3        30.19F
ELKO, NV       MOSUNNY   45  25  45 SW7       30.11F
POCATELLO, ID  LGT SNOW  30  28  92 NE10      30.09F FOG     WCI  21
FORT BRIDGER,  CLOUDY    42  31  65 W18       30.14S
EVANSTON, WY   MOSUNNY   37  28  70 SW21      30.12S WCI  26
ROCK SPRINGS,  CLOUDY    37  29  72 W24       30.08S WCI  26
KEMMERER, WY   FLURRIES  34  30  86 W18G25    30.10S WCI  23

$$



USA.gov is the U.S. government's official web portal to all federal, state and local government web resources and services.